Laramie, WY

5:14 AM MDT on September 28, 2016 (GMT -0600)
Laramie Regional

Weather History for KLAR - April, 2014

Change the Weather History Date:

Monday, April 7, 2014

  Actual Average Record
Temperature  
Mean Temperature 33 °F 36 °F  
Max Temperature 44 °F 48 °F 68 °F (1988)
Min Temperature 22 °F 23 °F -9 °F (1983)
Degree Days  
Heating Degree Days 32 30  
Month to date heating degree days 226 212  
Since 1 July heating degree days 7267 7447  
Cooling Degree Days 0 0  
Month to date cooling degree days 0 0  
Year to date cooling degree days 0 0  
Moisture  
Dew Point 21 °F    
Average Humidity 64    
Maximum Humidity 92    
Minimum Humidity 36    
Precipitation  
Precipitation T in 0.03 in 0.23 in (1957)
Month to date precipitation T 0.18  
Year to date precipitation 1.73 1.37  
Sea Level Pressure  
Sea Level Pressure 30.12 in    
Wind  
Wind Speed 17 mph (NW)    
Max Wind Speed 35 mph    
Max Gust Speed 45 mph    
Visibility 8 miles    
Events Fog , Snow    
T = Trace of Precipitation, MM = Missing Value Source: NWS Daily Summary

Daily Weather History Graph

Daily Weather History Graph

Search for Another Location

Airport or City:

Trip Planner

Search our weather history database for the weather conditions in past years. The results will help you decide how hot, cold, wet, or windy it might be!

Date:

Astronomy

Apr. 07, 2014 Rise Set
Actual Time 6:35 AM MDT 7:34 PM MDT
Civil Twilight 6:07 AM MDT 8:02 PM MDT
Nautical Twilight 5:34 AM MDT 8:36 PM MDT
Astronomical Twilight 4:59 AM MDT 9:11 PM MDT
Moon 12:32 PM MDT (4/7) 2:15 AM MDT (4/7)
Length of Visible Light 13h 54m
Length of Day
12h 58m
First Quarter, 54% of the Moon is Illuminated
Apr 7
First Quarter
Apr 15
Full
Apr 22
Last Quarter
Apr 29
New
May 6
First Quarter

Hourly Weather History & Observations

Time (MDT) Temp. Windchill Dew Point Humidity Pressure Visibility Wind Dir Wind Speed Gust Speed Precip Events Conditions
12:53 AM 25.0 °F 19.3 °F 21.9 °F 88% 30.00 in 10.0 mi SSW 4.6 mph - N/A   Overcast
1:53 AM 28.0 °F 18.6 °F 21.0 °F 75% 29.99 in 10.0 mi NNW 10.4 mph - N/A   Overcast
2:53 AM 28.0 °F 17.0 °F 25.0 °F 88% 29.99 in 10.0 mi NW 13.8 mph - N/A   Overcast
3:53 AM 27.0 °F 16.7 °F 24.1 °F 89% 30.02 in 10.0 mi NNW 11.5 mph - N/A   Mostly Cloudy
4:19 AM 27.0 °F 16.1 °F 23.0 °F 85% 30.06 in 10.0 mi NNW 12.7 mph - N/A   Mostly Cloudy
4:45 AM 26.1 °F 15.6 °F 21.9 °F 84% 30.07 in 10.0 mi NW 11.5 mph - N/A   Mostly Cloudy
4:53 AM 26.1 °F 15.6 °F 21.9 °F 84% 30.04 in 10.0 mi NW 11.5 mph - N/A   Mostly Cloudy
5:15 AM 27.0 °F 13.9 °F 25.0 °F 92% 30.08 in 1.5 mi NW 18.4 mph - 0.00 in Snow Light Snow
5:21 AM 27.0 °F 14.7 °F 25.0 °F 92% 30.08 in 0.8 mi NNW 16.1 mph - 0.00 in Snow Light Snow
5:24 AM 27.0 °F 11.9 °F 25.0 °F 92% 30.08 in 0.5 mi NNW 25.3 mph 31.1 mph 0.00 in Fog , Snow Snow
5:43 AM 26.1 °F 11.6 °F 24.1 °F 92% 30.09 in 0.5 mi North 21.9 mph 35.7 mph 0.00 in Fog , Snow Snow
5:53 AM 26.1 °F 14.0 °F 24.1 °F 92% 30.08 in 0.8 mi NNW 15.0 mph 25.3 mph 0.00 in Snow Light Snow
5:59 AM 26.1 °F 14.5 °F 24.1 °F 92% 30.10 in 2.0 mi NW 13.8 mph - 0.00 in Snow Light Snow
6:08 AM 26.1 °F 12.7 °F 23.0 °F 88% 30.10 in 1.8 mi NW 18.4 mph 27.6 mph 0.00 in Snow Light Snow
6:12 AM 26.1 °F 14.0 °F 23.0 °F 88% 30.10 in 3.0 mi NW 15.0 mph 27.6 mph 0.00 in Snow Light Snow
6:53 AM 23.0 °F 11.7 °F 21.0 °F 92% 30.12 in 10.0 mi WNW 11.5 mph - 0.00 in   Mostly Cloudy
7:53 AM 25.0 °F 13.6 °F 19.0 °F 78% 30.18 in 10.0 mi WNW 12.7 mph - N/A   Scattered Clouds
8:53 AM 30.0 °F 16.3 °F 21.9 °F 72% 30.16 in 10.0 mi WNW 24.2 mph 31.1 mph N/A   Clear
9:53 AM 30.0 °F 16.3 °F 21.9 °F 72% 30.20 in 10.0 mi NW 24.2 mph 33.4 mph N/A   Clear
10:29 AM 33.1 °F 19.6 °F 24.1 °F 70% 30.19 in 10.0 mi NW 27.6 mph 34.5 mph N/A   Mostly Cloudy
10:53 AM 33.1 °F 20.3 °F 21.0 °F 61% 30.20 in 10.0 mi NNW 24.2 mph 35.7 mph N/A   Mostly Cloudy
11:00 AM 34.0 °F 20.5 °F 21.0 °F 59% 30.19 in 10.0 mi NNW 28.8 mph 35.7 mph N/A   Mostly Cloudy
11:53 AM 36.0 °F 24.2 °F 19.9 °F 52% 30.18 in 10.0 mi NNW 24.2 mph 38.0 mph N/A   Scattered Clouds
12:53 PM 37.9 °F 26.1 °F 18.0 °F 45% 30.17 in 10.0 mi NNW 27.6 mph 39.1 mph 0.00 in   Overcast
2:53 PM 41.0 °F 30.2 °F 18.0 °F 40% 30.12 in 10.0 mi NW 27.6 mph 39.1 mph N/A   Overcast
3:53 PM 43.0 °F 34.5 °F 18.0 °F 37% 30.12 in 10.0 mi NW 19.6 mph 29.9 mph N/A   Mostly Cloudy
4:53 PM 41.0 °F 31.1 °F 17.1 °F 38% 30.13 in 10.0 mi NW 23.0 mph - N/A   Mostly Cloudy
5:53 PM 42.1 °F 31.7 °F 17.1 °F 37% 30.13 in 10.0 mi NW 27.6 mph - N/A   Overcast
6:53 PM 42.1 °F 31.9 °F 17.1 °F 37% 30.14 in 10.0 mi NW 26.5 mph 33.4 mph N/A   Overcast
7:53 PM 39.0 °F 31.8 °F 18.0 °F 43% 30.17 in 10.0 mi NNW 11.5 mph - N/A   Overcast
8:53 PM 35.1 °F 29.3 °F 19.0 °F 52% 30.18 in 10.0 mi NW 6.9 mph - N/A   Overcast
9:53 PM 32.0 °F 25.6 °F 19.0 °F 59% 30.22 in 10.0 mi NW 6.9 mph - N/A   Overcast
10:53 PM 34.0 °F 26.0 °F 19.0 °F 54% 30.19 in 10.0 mi NW 10.4 mph - N/A   Overcast
11:53 PM 33.1 °F 25.5 °F 19.9 °F 59% 30.18 in 10.0 mi West 9.2 mph - N/A   Overcast